1498719600.91,27197,18.38,72946.3,6.05,5.81,5.81,0,*74
1498719602.12,27198,18.31,72938.0,6.05,6.11,6.11,0,*7B
1498719603.36,27199,18.31,72930.0,6.07,5.89,5.85,0,*74
1498719604.59,27200,18.31,72928.5,6.07,5.51,5.55,0,*7F
1498719605.82,27201,18.31,72910.5,6.07,5.27,5.27,0,*7A
1498719607.09,27202,18.31,72900.5,6.05,5.01,5.01,0,*7B
1498719608.3,27203,18.31,72900.3,6.05,5.23,5.15,0,*7F
1498719609.48,27204,18.31,72906.5,6.03,5.29,5.29,0,*7B
1498719610.68,27205,18.38,72926.5,6.05,5.33,5.37,0,*78
1498719611.86,27206,18.31,72926.5,6.07,5.45,5.45,0,*7D
1498719613.09,27207,18.31,72910.3,6.05,5.33,5.27,0,*7B
1498719614.28,27208,18.31,72914.3,6.03,4.85,4.85,0,*77
1498719615.47,27209,18.31,72914.3,6.03,5.07,5.19,0,*79
1498719616.68,27210,18.31,72902.3,6.05,5.15,5.23,0,*7D
1498719617.86,27211,18.31,72904.8,6.03,5.37,5.37,0,*7F
1498719619.04,27212,18.38,72926.5,6.03,5.37,5.49,0,*75
1498719620.22,27213,18.38,72902.3,6.03,5.33,5.29,0,*76
1498719621.49,27214,18.38,72854.5,6.01,4.79,4.79,0,*78
1498719622.7,27215,18.31,72846.8,6.01,4.53,4.41,0,*7A
1498719623.93,27216,18.31,72880.8,5.99,4.59,4.59,0,*78
1498719625.17,27217,18.31,72896.0,5.99,4.59,4.59,0,*79
1498719626.38,27218,18.31,72874.8,5.97,4.33,4.41,0,*7D
1498719627.62,27219,18.31,72896.5,5.97,4.23,4.31,0,*7A
1498719628.88,27220,18.31,72906.5,5.97,4.31,4.31,0,*73
1498719630.15,27221,18.31,72884.8,5.97,4.79,4.71,0,*7A
1498719631.39,27222,18.31,72904.5,5.95,4.71,4.71,0,*73
1498719632.63,27223,18.31,72898.3,5.95,4.67,4.67,0,*72
1498719633.82,27224,18.38,72874.8,5.95,4.41,4.41,0,*75
1498719635.03,27225,18.31,72872.5,5.93,4.53,4.53,0,*72
1498719636.25,27226,18.31,72858.5,5.93,5.07,5.07,0,*71
1498719637.43,27227,18.31,72892.3,5.91,5.45,5.49,0,*7E
1498719638.66,27228,18.31,72902.8,5.91,5.81,5.81,0,*7D
1498719639.89,27229,18.38,72866.8,5.93,5.71,5.81,0,*71
1498719641.13,27230,18.31,72856.8,5.95,5.85,5.85,0,*70
1498719642.36,27231,18.31,72862.5,5.95,5.85,5.85,0,*71
1498719643.57,27232,18.38,72866.8,5.99,5.71,5.85,0,*75
1498719644.77,27233,18.38,72832.3,5.97,5.71,5.71,0,*71
1498719645.98,27234,18.31,72892.8,5.97,5.63,5.63,0,*76
1498719647.18,27235,18.38,72888.3,5.99,6.03,6.03,0,*79
1498719648.38,27236,18.31,72890.5,5.99,6.25,6.33,0,*7D
1498719649.56,27237,18.38,72904.0,6.03,6.25,6.29,0,*77
1498719650.81,27238,18.31,72946.0,6.01,6.29,6.35,0,*7B
1498719652.04,27239,18.31,72910.0,6.03,6.51,6.57,0,*73
1498719653.27,27240,18.31,72926.5,6.03,6.69,6.69,0,*7B
1498719654.5,27241,18.31,72916.0,6.07,6.65,6.69,0,*72
1498719655.71,27242,18.31,72928.3,6.07,6.69,6.75,0,*70
1498719656.96,27243,18.31,72930.0,6.13,6.51,6.57,0,*7F
1498719658.23,27244,18.31,72942.0,6.13,6.47,6.47,0,*7E
1498719659.49,27245,18.31,72942.5,6.13,6.51,6.51,0,*7F
1498719660.71,27246,18.31,72932.3,6.15,6.69,6.73,0,*71
1498719661.89,27247,18.31,72952.8,6.15,6.83,6.83,0,*7B
1498719663.15,27248,18.38,72950.5,6.17,6.87,6.91,0,*71
1498719664.36,27249,18.31,72936.0,6.19,6.91,6.93,0,*7B
1498719665.54,27250,18.31,72936.0,6.19,6.75,6.79,0,*7D
1498719666.77,27251,18.38,72946.8,6.21,6.91,6.91,0,*7B
1498719667.94,27252,18.38,72944.3,6.21,6.93,7.05,0,*76
1498719669.16,27253,18.38,72948.3,6.23,6.93,6.97,0,*7F
1498719670.41,27254,18.31,72948.3,6.27,7.19,7.19,0,*78
1498719671.66,27255,18.31,72934.0,6.27,7.23,7.29,0,*73
1498719672.92,27256,18.31,72926.5,6.31,7.23,7.27,0,*79
1498719674.13,27257,18.31,72930.3,6.29,7.23,7.29,0,*7F
1498719675.34,27258,18.31,72928.8,6.29,7.55,7.61,0,*7D
1498719676.6,27259,18.31,72926.5,6.35,7.61,7.69,0,*7E
1498719677.81,27260,18.31,72930.3,6.35,7.51,7.59,0,*74
1498719679.01,27261,18.31,72926.8,6.37,7.59,7.61,0,*74
1498719680.27,27262,18.38,72926.3,6.39,7.83,7.91,0,*71
1498719681.49,27263,18.31,72926.0,6.41,7.87,7.91,0,*7B
1498719682.74,27264,18.31,72918.8,6.43,7.91,7.91,0,*79
1498719683.92,27265,18.31,72924.5,6.45,7.51,7.59,0,*76
1498719685.12,27266,18.31,72936.0,6.47,7.59,7.59,0,*7F
1498719686.35,27267,18.31,72936.3,6.47,7.73,7.79,0,*74
1498719687.59,27268,18.31,72918.5,6.47,7.73,7.79,0,*7B
1498719688.82,27269,18.31,72924.8,6.51,7.59,7.65,0,*78
1498719690.02,27270,18.31,72924.8,6.49,7.23,7.33,0,*77
1498719691.22,27271,18.38,72922.0,6.51,7.33,7.37,0,*7A
1498719692.42,27272,18.31,72914.0,6.53,7.45,7.45,0,*7F
1498719693.62,27273,18.31,72924.5,6.53,7.97,8.05,0,*7A
1498719694.85,27274,18.31,72920.8,6.57,8.59,8.69,0,*7E
1498719696.06,27275,18.38,72922.8,6.61,9.07,9.21,0,*7D
1498719697.29,27276,18.31,72934.5,6.65,9.35,9.43,0,*7F
1498719698.5,27277,18.38,72932.5,6.67,8.97,9.07,0,*75
1498719699.72,27278,18.31,72922.5,6.71,8.97,9.11,0,*7A
1498719700.97,27279,18.31,72932.3,6.73,8.93,9.11,0,*7D
1498719702.17,27280,18.38,72940.0,6.79,8.93,9.03,0,*72
1498719703.35,27281,18.31,72940.0,6.79,8.23,8.27,0,*7F
1498719704.56,27282,18.31,72926.0,6.81,8.15,8.27,0,*7E
1498719705.76,27283,18.31,72938.0,6.83,8.55,8.65,0,*7F
1498719706.99,27284,18.38,72936.3,6.83,8.75,8.75,0,*7B
1498719708.2,27285,18.38,72934.5,6.87,8.87,8.87,0,*7E
1498719709.4,27286,18.31,72928.5,6.87,8.45,8.45,0,*7D
1498719710.63,27287,18.31,72900.0,6.89,8.51,8.59,0,*7A
1498719711.83,27288,18.31,72922.5,6.93,8.51,8.65,0,*71
1498719713.08,27289,18.31,72914.3,6.95,7.65,7.69,0,*7D
1498719714.31,27290,18.31,72948.3,6.95,8.01,8.13,0,*7A
1498719715.53,27291,18.31,72940.0,6.97,8.33,8.41,0,*7F
1498719716.71,27292,18.31,72928.8,6.97,7.79,7.79,0,*79
1498719717.88,27293,18.31,72944.0,6.97,7.97,8.09,0,*70
1498719719.11,27294,18.31,72954.0,6.97,7.69,7.77,0,*70
1498719720.29,27295,18.31,72954.0,6.97,7.79,7.79,0,*7E
1498719721.55,27296,18.31,72948.8,6.99,7.69,7.73,0,*78
1498719722.81,27297,18.31,72934.8,6.99,6.43,6.43,0,*72
1498719724.03,27298,18.31,72930.8,6.97,5.85,5.93,0,*74
1498719725.26,27299,18.31,72938.8,6.97,6.51,6.65,0,*75
1498719726.42,27300,18.38,72954.0,6.97,7.01,7.01,0,*73
1498719727.59,27301,18.31,72924.3,6.97,6.83,6.93,0,*73
1498719728.82,27302,18.31,72934.8,6.99,7.95,8.15,0,*78
1498719730.02,27303,18.38,72902.8,6.97,8.65,8.75,0,*71
1498719731.21,27304,18.31,72918.5,7.03,7.97,8.15,0,*7E
1498719732.47,27305,18.31,72916.3,7.03,7.73,7.77,0,*7E
1498719733.65,27306,18.31,72888.5,7.05,6.83,6.93,0,*7E
1498719734.82,27307,18.31,72914.0,7.05,5.41,5.45,0,*7A
1498719736.02,27308,18.31,72894.8,7.03,5.45,5.41,0,*73
1498719737.21,27309,18.31,72904.8,6.97,5.45,5.51,0,*7F
1498719738.38,27310,18.31,72922.8,6.97,5.59,5.63,0,*7B
1498719739.56,27311,18.31,72908.8,6.93,5.71,5.67,0,*70
1498719740.79,27312,18.31,72916.3,6.93,5.89,5.81,0,*7C
1498719742.01,27313,18.31,72902.8,6.93,5.77,5.81,0,*7C
1498719743.24,27314,18.31,72920.0,6.89,5.51,5.55,0,*7D
1498719744.46,27315,18.31,72906.0,6.89,5.51,5.51,0,*78
1498719745.67,27316,18.31,72934.8,6.87,5.23,5.11,0,*74
1498719746.88,27317,18.31,72906.3,6.87,5.11,5.15,0,*70
1498719748.07,27318,18.31,72882.8,6.85,5.23,5.23,0,*79
1498719749.25,27319,18.31,72908.5,6.83,5.07,5.07,0,*7E
1498719750.45,27320,18.31,72924.8,6.81,4.89,4.85,0,*7A
1498719751.65,27321,18.38,72932.3,6.81,5.71,5.71,0,*77
1498719752.85,27322,18.31,72934.3,6.81,5.99,6.03,0,*74
1498719754.08,27323,18.31,72928.0,6.81,6.25,6.17,0,*74
1498719755.27,27324,18.31,72922.8,6.75,6.33,6.33,0,*79
1498719756.5,27325,18.31,72922.8,6.75,5.81,5.73,0,*75
1498719757.74,27326,18.31,72908.5,6.75,5.01,5.01,0,*7B
1498719758.96,27327,18.31,72908.8,6.75,5.27,5.27,0,*7A
1498719760.14,27328,18.31,72928.5,6.75,5.37,5.29,0,*7A
1498719761.33,27329,18.31,72900.3,6.71,5.55,5.49,0,*7D
1498719762.58,27330,18.38,72896.8,6.73,5.51,5.51,0,*7A
1498719763.79,27331,18.31,72886.3,6.71,5.07,5.01,0,*7F
1498719765.02,27332,18.31,72890.3,6.71,4.97,4.97,0,*7A
1498719766.21,27333,18.31,72890.8,6.71,5.23,5.19,0,*72
1498719767.42,27334,18.31,72890.8,6.69,5.67,5.71,0,*72
1498719768.67,27335,18.31,72882.3,6.69,5.93,5.89,0,*7F
1498719769.84,27336,18.31,72894.0,6.67,5.45,5.45,0,*79
1498719771.09,27337,18.31,72888.5,6.69,5.81,5.77,0,*7F
1498719772.28,27338,18.31,72892.8,6.67,5.99,5.99,0,*77
1498719773.47,27339,18.31,72892.8,6.67,6.25,6.33,0,*71
1498719774.7,27340,18.38,72906.0,6.67,6.13,6.13,0,*78
1498719775.95,27341,18.31,72898.3,6.69,6.17,6.13,0,*73
1498719777.14,27342,18.31,72890.5,6.67,6.03,6.03,0,*7A
1498719778.38,27343,18.31,72844.3,6.67,4.93,4.93,0,*7B
1498719779.56,27344,18.38,72836.5,6.63,4.49,4.57,0,*77
1498719780.79,27345,18.31,72866.0,6.63,4.67,4.59,0,*74
1498719781.99,27346,18.38,72888.3,6.63,4.57,4.59,0,*74
1498719783.17,27347,18.31,72894.5,6.63,5.15,5.11,0,*7F
1498719784.4,27348,18.31,72892.5,6.61,5.59,5.55,0,*7A
1498719785.64,27349,18.31,72892.8,6.59,5.89,5.89,0,*7C
1498719786.88,27350,18.31,72896.0,6.61,6.29,6.35,0,*72
1498719788.14,27351,18.31,72906.5,6.61,6.47,6.51,0,*79
1498719789.39,27352,18.38,72908.0,6.61,6.65,6.61,0,*79
1498719790.61,27353,18.31,72900.8,6.63,6.69,6.69,0,*7E
1498719791.84,27354,18.31,72894.3,6.61,6.75,6.87,0,*76
1498719793.04,27355,18.31,72892.0,6.65,6.11,6.07,0,*79
1498719794.28,27356,18.31,72884.8,6.63,5.05,5.01,0,*7F
1498719795.54,27357,18.31,72910.0,6.61,5.01,5.01,0,*78
1498719796.75,27358,18.31,72858.5,6.61,4.45,4.45,0,*77
1498719797.93,27359,18.31,72854.5,6.59,4.45,4.41,0,*79
1498719799.19,27360,18.31,72866.0,6.53,5.05,4.93,0,*73
1498719800.4,27361,18.31,72868.0,6.53,5.15,5.07,0,*7F
1498719801.6,27362,18.31,72834.5,6.53,5.95,5.95,0,*7F
1498719802.85,27363,18.31,72816.8,6.57,5.77,5.93,0,*70
1498719804.08,27364,18.38,72804.8,6.57,7.01,7.11,0,*7C
1498719805.25,27365,18.31,72842.3,6.59,6.07,6.07,0,*72
1498719806.52,27366,18.31,72836.0,6.61,6.35,6.35,0,*7A
1498719807.72,27367,18.31,72836.8,6.61,5.45,5.45,0,*7B
1498719808.9,27368,18.31,72872.5,6.59,5.71,5.71,0,*7F
1498719810.11,27369,18.31,72846.0,6.59,6.17,6.25,0,*7F
1498719811.3,27370,18.31,72886.5,6.59,6.29,6.25,0,*7A
1498719812.55,27371,18.31,72880.5,6.61,6.51,6.57,0,*7A
1498719813.73,27372,18.31,72884.0,6.63,5.11,5.11,0,*7D
1498719814.92,27373,18.31,72876.0,6.59,4.45,4.45,0,*75
1498719816.1,27374,18.31,72850.8,6.59,5.71,5.71,0,*72
1498719817.36,27375,18.31,72868.0,6.61,4.63,4.63,0,*78
1498719818.56,27376,18.31,72862.8,6.59,5.49,5.55,0,*7D
1498719819.77,27377,18.31,72860.5,6.57,5.67,5.63,0,*7B
1498719821.02,27378,18.31,72826.5,6.57,5.55,5.51,0,*74
1498719822.25,27379,18.31,72872.0,6.59,5.77,5.81,0,*76
1498719823.45,27380,18.31,72868.5,6.59,5.71,5.77,0,*7F
1498719824.65,27381,18.31,72852.3,6.59,6.83,6.87,0,*7C
1498719825.86,27382,18.38,72838.8,6.61,7.41,7.51,0,*71
1498719827.11,27383,18.38,72862.3,6.65,7.87,7.91,0,*72
1498719828.34,27384,18.31,72880.3,6.65,8.47,8.69,0,*7E
1498719829.54,27385,18.31,72852.5,6.73,9.33,9.43,0,*73
1498719830.78,27386,18.31,72874.8,6.73,8.87,9.01,0,*78
1498719831.97,27387,18.31,72874.3,6.79,9.25,9.39,0,*71
1498719833.18,27388,18.31,72850.8,6.83,9.71,9.85,0,*7D
1498719834.41,27389,18.31,72890.8,6.87,9.75,9.89,0,*70
1498719835.62,27390,18.31,72876.0,6.91,9.29,9.43,0,*70
1498719836.84,27391,18.31,72884.5,6.95,9.11,9.21,0,*7A
1498719838.04,27392,18.31,72884.0,6.97,9.15,9.33,0,*7C
1498719839.28,27393,18.31,72890.3,6.99,10.13,10.27,0,*70
1498719840.52,27394,18.31,72912.8,7.09,10.79,10.95,0,*7A
1498719841.73,27395,18.31,72894.3,7.13,10.71,10.93,0,*7E
1498719842.97,27396,18.31,72880.0,7.15,9.81,9.95,0,*72
1498719844.2,27397,18.31,72912.0,7.19,9.85,9.99,0,*77
1498719845.38,27398,18.31,72920.8,7.25,9.63,9.91,0,*77
1498719846.55,27399,18.31,72884.3,7.25,8.05,8.15,0,*7A
1498719847.75,27400,18.38,72892.3,7.27,7.97,8.15,0,*7B
1498719848.99,27401,18.31,72872.0,7.29,9.01,9.19,0,*78
1498719850.24,27402,18.31,72886.0,7.31,9.77,9.89,0,*7A
1498719851.45,27403,18.31,72894.0,7.33,9.89,9.99,0,*79
1498719852.7,27404,18.31,72888.3,7.39,10.05,10.19,0,*78
1498719853.92,27405,18.31,72902.5,7.39,10.05,10.09,0,*78
1498719855.13,27406,18.31,72906.5,7.43,10.47,10.69,0,*76
1498719856.37,27407,18.31,72912.8,7.49,11.17,11.37,0,*73
1498719857.61,27408,18.31,72918.8,7.53,10.99,11.21,0,*77
1498719858.83,27409,18.31,72894.0,7.57,10.33,10.47,0,*73
1498719860.07,27410,18.38,72904.8,7.59,10.31,10.41,0,*71
1498719861.28,27411,18.31,72912.3,7.63,9.89,9.91,0,*77
1498719862.48,27412,18.31,72904.3,7.65,9.63,9.75,0,*7C
1498719863.71,27413,18.31,72900.0,7.65,9.01,9.07,0,*7C
1498719864.97,27414,18.31,72886.8,7.65,7.77,7.69,0,*72
1498719866.19,27415,18.38,72876.5,7.63,7.69,7.65,0,*76
1498719867.39,27416,18.38,72876.8,7.65,7.51,7.51,0,*7F
1498719868.59,27417,18.31,72868.5,7.61,7.09,7.05,0,*76
1498719869.86,27418,18.38,72874.3,7.61,6.35,6.35,0,*75
1498719871.09,27419,18.31,72878.3,7.61,6.11,6.13,0,*76
1498719872.31,27420,18.31,72888.8,7.55,5.73,5.73,0,*79
1498719873.5,27421,18.31,72884.8,7.55,5.59,5.59,0,*78
1498719874.69,27422,18.31,72886.5,7.51,5.19,5.11,0,*77
1498719875.91,27423,18.31,72880.3,7.51,5.81,5.77,0,*77
1498719877.11,27424,18.38,72890.0,7.47,5.15,5.07,0,*7D
1498719878.34,27425,18.31,72852.3,7.47,4.81,4.75,0,*74
1498719879.55,27426,18.38,72808.0,7.39,4.45,4.41,0,*71
1498719880.78,27427,18.31,72830.0,7.37,5.85,5.89,0,*76
1498719881.95,27428,18.31,72858.0,7.41,6.75,6.75,0,*74
1498719883.18,27429,18.31,72856.3,7.37,5.89,5.89,0,*74
1498719884.37,27430,18.31,72870.8,7.37,6.33,6.33,0,*7C
1498719885.55,27431,18.31,72866.0,7.33,6.75,6.75,0,*79
1498719886.8,27432,18.31,72868.3,7.35,7.11,7.15,0,*78
1498719888.0,27433,18.31,72868.8,7.35,7.37,7.37,0,*7D
1498719889.23,27434,18.38,72874.0,7.35,8.59,8.79,0,*78
1498719890.44,27435,18.31,72876.8,7.39,8.23,8.23,0,*77
1498719891.65,27436,18.31,72900.8,7.39,7.55,7.55,0,*74
1498719892.85,27437,18.31,72886.0,7.41,7.23,7.29,0,*70
1498719894.06,27438,18.38,72880.8,7.41,7.23,7.29,0,*7F
1498719895.23,27439,18.38,72856.8,7.41,7.33,7.33,0,*74
1498719896.43,27440,18.31,72854.0,7.43,7.29,7.33,0,*73
1498719897.65,27441,18.31,72814.3,7.41,6.43,6.39,0,*76
1498719898.89,27442,18.31,72834.8,7.39,6.03,6.13,0,*76
1498719900.06,27443,18.31,72822.3,7.41,6.97,7.01,0,*77
1498719901.26,27444,18.31,72790.8,7.39,7.37,7.45,0,*74
1498719902.49,27445,18.38,72818.3,7.39,6.35,6.29,0,*7D
1498719903.72,27446,18.31,72856.8,7.37,6.69,6.65,0,*71
1498719904.94,27447,18.31,72850.5,7.37,7.15,7.23,0,*79
1498719906.2,27448,18.38,72840.3,7.39,7.73,7.65,0,*7A
1498719907.41,27449,18.38,72810.8,7.39,7.29,7.37,0,*73
1498719908.66,27450,18.31,72816.0,7.39,6.61,6.69,0,*7C
1498719909.91,27451,18.31,72866.3,7.39,7.77,7.87,0,*7A
1498719911.14,27452,18.31,72882.5,7.39,8.51,8.61,0,*75
1498719912.39,27453,18.31,72868.3,7.43,7.91,7.91,0,*7A
1498719913.58,27454,18.31,72886.8,7.43,7.97,7.97,0,*7D
1498719914.8,27455,18.31,72888.8,7.43,8.45,8.47,0,*7E
1498719916.03,27456,18.31,72868.8,7.43,9.01,9.03,0,*7D
1498719917.29,27457,18.31,72898.0,7.49,8.93,8.93,0,*74
1498719918.52,27458,18.31,72886.3,7.51,8.97,9.01,0,*7C
1498719919.75,27459,18.31,72840.8,7.53,8.55,8.65,0,*72
1498719921.02,27460,18.38,72888.3,7.53,8.97,9.01,0,*75
1498719922.22,27461,18.31,72876.3,7.57,8.79,8.83,0,*7B
1498719923.43,27462,18.31,72880.3,7.55,9.15,9.21,0,*78
1498719924.63,27463,18.31,72874.8,7.59,9.63,9.77,0,*77
1498719925.87,27464,18.31,72874.5,7.61,9.43,9.49,0,*74
1498719927.1,27465,18.31,72888.0,7.65,9.57,9.75,0,*7B
1498719928.32,27466,18.38,72870.5,7.65,8.59,8.65,0,*77
1498719929.5,27467,18.38,72930.5,7.67,7.59,7.59,0,*7B
1498719930.73,27468,18.38,72932.0,7.71,8.41,8.51,0,*72
1498719931.9,27469,18.31,72882.0,7.67,7.37,7.41,0,*74
1498719933.07,27470,18.31,72786.5,7.71,7.37,7.41,0,*7B
1498719934.29,27471,18.38,72814.8,7.67,7.69,7.65,0,*70
1498719935.49,27472,18.31,72790.8,7.67,8.83,8.97,0,*7A
1498719936.68,27473,18.38,72824.5,7.71,7.41,7.47,0,*7F
1498719937.86,27474,18.31,72838.5,7.71,7.05,7.09,0,*72
1498719939.06,27475,18.38,72880.3,7.67,7.05,7.11,0,*7D
1498719940.28,27476,18.31,72874.8,7.67,8.71,8.71,0,*7B
1498719941.48,27477,18.31,72876.8,7.71,9.43,9.61,0,*7D
1498719942.68,27478,18.31,72916.8,7.75,9.57,9.67,0,*75
1498719943.91,27479,18.31,72880.8,7.77,9.85,9.95,0,*74
1498719945.12,27480,18.38,72898.8,7.77,9.99,10.09,0,*42
1498719946.36,27481,18.31,72898.8,7.83,10.41,10.47,0,*7F
1498719947.57,27482,18.31,72898.0,7.85,9.89,9.95,0,*71
1498719948.8,27483,18.31,72902.8,7.87,9.57,9.63,0,*78
1498719949.99,27484,18.31,72912.3,7.93,10.03,10.05,0,*7B
1498719951.17,27485,18.31,72918.8,7.93,9.63,9.75,0,*7B
1498719952.38,27486,18.31,72916.0,7.95,9.71,9.71,0,*79
1498719953.59,27487,18.31,72918.5,7.97,9.47,9.57,0,*7B
1498719954.8,27488,18.31,72926.8,7.97,9.47,9.57,0,*74
1498719956.03,27489,18.31,72872.3,7.99,8.41,8.45,0,*7E
1498719957.23,27490,18.31,72880.5,8.01,8.71,8.83,0,*71
1498719958.43,27491,18.31,72876.3,8.01,7.97,7.91,0,*7B
1498719959.67,27492,18.38,72882.3,7.99,6.29,6.35,0,*7D
1498719960.9,27493,18.38,72900.3,7.95,6.73,6.79,0,*77
1498719962.12,27494,18.38,72898.5,7.95,6.91,6.93,0,*78
1498719963.38,27495,18.31,72910.5,7.95,7.95,7.95,0,*7B
1498719964.57,27496,18.38,72926.3,7.97,9.43,9.47,0,*7E
1498719965.78,27497,18.38,72886.8,7.97,8.87,8.97,0,*7A
1498719967.01,27498,18.38,72882.5,7.97,7.87,7.87,0,*74
1498719968.24,27499,18.31,72932.3,7.95,8.93,9.03,0,*7F
1498719969.44,27500,18.31,72902.0,8.01,9.67,9.77,0,*75
1498719970.62,27501,18.31,72910.5,8.01,9.21,9.21,0,*75
1498719971.85,27502,18.38,72922.5,8.01,8.89,9.01,0,*77
1498719973.08,27503,18.38,72932.0,8.05,9.15,9.19,0,*7F
1498719974.31,27504,18.38,72916.3,8.03,7.95,8.01,0,*70
1498719975.55,27505,18.38,72942.5,8.03,7.95,8.01,0,*71
1498719976.78,27506,18.38,72944.8,8.03,8.75,8.87,0,*7D
1498719977.96,27507,18.31,72918.5,8.05,8.15,8.15,0,*77
1498719979.14,27508,18.38,72886.0,8.05,8.19,8.27,0,*75
1498719980.37,27509,18.38,72918.8,8.03,8.97,9.03,0,*73
1498719981.6,27510,18.38,72944.5,8.07,9.39,9.43,0,*7E
1498719982.78,27511,18.31,72952.5,8.09,8.09,8.09,0,*7C
1498719984.01,27512,18.38,72970.3,8.09,7.23,7.23,0,*7F
1498719985.23,27513,18.31,72968.3,8.05,6.91,6.91,0,*72
1498719986.43,27514,18.38,72964.5,8.05,7.41,7.27,0,*75
1498719987.6,27515,18.38,72940.0,8.05,7.37,7.37,0,*74
1498719988.81,27516,18.31,72926.0,8.03,5.41,5.29,0,*7F
1498719989.98,27517,18.31,72914.3,8.01,5.41,5.37,0,*73
1498719991.24,27518,18.38,72910.8,7.99,6.39,6.51,0,*7D
1498719992.49,27519,18.38,72920.5,7.99,6.65,6.65,0,*72
1498719993.71,27520,18.38,72916.8,7.99,5.55,5.33,0,*78
1498719994.93,27521,18.38,72892.8,7.99,5.55,5.49,0,*74
1498719996.16,27522,18.38,72908.8,7.95,4.59,4.49,0,*77
1498719997.34,27523,18.38,72882.0,7.89,6.11,6.07,0,*7D
1498719998.55,27524,18.38,72906.0,7.93,6.93,6.91,0,*74
1498719999.81,27525,18.38,72878.5,7.87,5.85,5.73,0,*7B
1498720000.99,27526,18.38,72914.5,7.85,4.89,4.85,0,*7F
1498720002.17,27527,18.38,72838.8,7.85,5.37,5.37,0,*72
1498720003.38,27528,18.38,72882.3,7.83,5.11,5.11,0,*7B
1498720004.56,27529,18.38,72924.3,7.81,5.67,5.63,0,*7C
1498720005.79,27530,18.38,72906.8,7.81,6.57,6.61,0,*75
1498720006.97,27531,18.38,72854.0,7.81,4.49,4.41,0,*79
1498720008.18,27532,18.38,72860.5,7.77,4.11,4.07,0,*7C
1498720009.39,27533,18.38,72854.0,7.77,5.15,5.11,0,*7E
1498720010.64,27534,18.31,72832.5,7.73,3.45,3.33,0,*78
1498720011.81,27535,18.38,72852.5,7.67,4.49,4.45,0,*71
1498720013.02,27536,18.31,72892.8,7.67,5.19,4.97,0,*79
1498720014.22,27537,18.38,72890.0,7.65,5.63,5.59,0,*74
1498720015.45,27538,18.38,72888.3,7.67,5.85,5.85,0,*70
1498720016.69,27539,18.38,72896.5,7.65,6.17,6.13,0,*77
1498720017.89,27540,18.38,72916.3,7.67,6.75,6.87,0,*72
1498720019.12,27541,18.38,72916.0,7.67,6.57,6.47,0,*7F
1498720020.33,27542,18.38,72926.5,7.71,4.97,4.85,0,*79
1498720021.52,27543,18.38,72932.0,7.65,5.45,5.37,0,*7B
1498720022.69,27544,18.38,72960.0,7.63,6.97,7.01,0,*71
1498720023.92,27545,18.38,72940.3,7.65,8.19,8.29,0,*7B
1498720025.15,27546,18.38,72910.3,7.65,5.81,5.71,0,*74
1498720026.4,27547,18.38,72894.3,7.65,4.01,3.75,0,*7E
1498720027.63,27548,18.38,72904.8,7.63,3.75,3.53,0,*77
1498720028.86,27549,18.38,72910.5,7.59,4.79,4.63,0,*70
1498720030.06,27550,18.38,72916.0,7.55,5.37,5.27,0,*7E
1498720031.29,27551,18.31,72910.0,7.55,5.85,5.81,0,*7A
1498720032.48,27552,18.38,72902.8,7.55,5.59,5.59,0,*7D
1498720033.68,27553,18.38,72904.5,7.53,5.41,5.37,0,*7B
1498720034.9,27554,18.38,72906.8,7.53,6.03,5.95,0,*71
1498720036.14,27555,18.38,72900.0,7.51,6.47,6.47,0,*7E
1498720037.35,27556,18.38,72922.3,7.53,5.63,5.63,0,*7F
1498720038.56,27557,18.38,72940.3,7.51,6.25,6.17,0,*7D
1498720039.76,27558,18.38,72948.0,7.51,6.93,6.87,0,*76
1498720041.02,27559,18.38,72966.5,7.53,6.73,6.61,0,*73
1498720042.19,27560,18.38,72972.5,7.51,5.49,5.45,0,*74
1498720043.36,27561,18.38,72962.8,7.51,5.37,5.29,0,*76
1498720044.57,27562,18.38,72962.8,7.51,5.59,5.55,0,*76
1498720045.8,27563,18.38,72954.8,7.49,5.63,5.55,0,*77
1498720047.0,27564,18.38,72950.5,7.47,4.53,4.33,0,*7D
1498720048.2,27565,18.38,72894.3,7.41,4.19,4.01,0,*75
1498720049.43,27566,18.38,72860.0,7.41,4.79,4.71,0,*77
1498720050.63,27567,18.38,72830.8,7.39,5.45,5.33,0,*70
1498720051.83,27568,18.38,72810.8,7.37,5.55,5.41,0,*75
1498720053.03,27569,18.38,72782.3,7.37,4.85,4.63,0,*79
1498720054.24,27570,18.38,72798.8,7.37,5.19,5.05,0,*74
1498720055.45,27571,18.38,72788.0,7.35,5.41,5.33,0,*7F
1498720056.63,27572,18.38,72778.3,7.33,5.41,5.29,0,*71
1498720057.83,27573,18.38,72754.3,7.33,4.89,4.79,0,*71
1498720059.03,27574,18.38,72754.3,7.31,3.93,3.85,0,*7C
1498720060.24,27575,18.38,72700.8,7.29,3.11,2.99,0,*72
1498720061.5,27576,18.38,72780.8,7.27,4.97,4.97,0,*7E
1498720062.75,27577,18.38,72798.8,7.27,7.15,7.23,0,*7A
1498720063.98,27578,18.38,72820.5,7.27,7.15,7.29,0,*7F
1498720065.24,27579,18.38,72828.5,7.31,8.41,8.51,0,*77
1498720066.44,27580,18.38,72806.3,7.35,8.05,8.05,0,*74
1498720067.7,27581,18.38,72880.5,7.35,7.61,7.61,0,*75
1498720068.9,27582,18.38,72874.8,7.39,6.75,6.83,0,*73
1498720070.15,27583,18.38,72888.3,7.39,7.87,7.87,0,*7B
1498720071.37,27584,18.38,72850.3,7.41,7.87,7.83,0,*77
1498720072.62,27585,18.38,72898.5,7.43,7.69,7.69,0,*70
1498720073.84,27586,18.38,72918.8,7.43,7.45,7.47,0,*71
1498720075.07,27587,18.38,72920.0,7.49,8.29,8.27,0,*76
1498720076.27,27588,18.38,72918.5,7.49,7.05,7.01,0,*73
1498720077.47,27589,18.38,72930.0,7.49,6.75,6.75,0,*76
1498720078.68,27590,18.38,72928.0,7.49,5.95,5.95,0,*7E
1498720079.91,27591,18.38,72910.8,7.47,6.93,6.91,0,*73
1498720081.14,27592,18.38,72894.0,7.51,6.57,6.39,0,*7D
1498720082.35,27593,18.38,72912.8,7.51,5.11,4.97,0,*7B
1498720083.55,27594,18.38,72902.5,7.49,4.85,4.81,0,*7E
1498720084.78,27595,18.38,72918.5,7.47,4.81,4.71,0,*7A
1498720086.01,27596,18.38,72916.5,7.47,5.07,4.97,0,*7E
1498720087.2,27597,18.38,72908.5,7.41,4.93,4.89,0,*7A
1498720088.38,27598,18.38,72894.3,7.41,4.49,4.41,0,*76
1498720089.6,27599,18.38,72892.3,7.39,5.27,5.11,0,*75
1498720090.79,27600,18.38,72868.8,7.37,5.23,5.15,0,*78
1498720092.02,27601,18.38,72850.8,7.39,6.25,6.17,0,*73
1498720093.23,27602,18.38,72860.3,7.37,5.07,4.93,0,*73
1498720094.44,27603,18.38,72862.8,7.37,4.97,4.85,0,*7D
1498720095.62,27604,18.38,72872.8,7.33,5.41,5.37,0,*7C
1498720096.85,27605,18.38,72876.8,7.35,5.05,4.85,0,*73
1498720098.08,27606,18.38,72878.5,7.33,4.79,4.71,0,*77
1498720099.27,27607,18.38,72880.5,7.29,4.45,4.41,0,*71
1498720100.45,27608,18.38,72900.8,7.29,4.33,4.15,0,*7E
1498720101.65,27609,18.38,72890.3,7.27,5.07,4.85,0,*7E
1498720102.91,27610,18.38,72878.5,7.27,5.05,4.93,0,*73
1498720104.13,27611,18.38,72886.0,7.27,5.51,5.41,0,*7D
1498720105.36,27612,18.38,72884.5,7.21,5.89,5.85,0,*75
1498720106.55,27613,18.38,72884.3,7.21,5.19,5.15,0,*74
1498720107.75,27614,18.38,72908.8,7.21,5.29,5.27,0,*71
1498720108.98,27615,18.38,72916.3,7.19,4.85,4.67,0,*79
1498720110.23,27616,18.38,72918.5,7.19,3.45,3.15,0,*73
1498720111.44,27617,18.38,72888.3,7.15,4.15,3.93,0,*72
1498720112.68,27618,18.38,72906.8,7.15,5.07,4.97,0,*7C
1498720113.9,27619,18.38,72940.8,7.13,5.93,5.93,0,*73
1498720115.11,27620,18.38,72896.8,7.13,5.99,5.89,0,*78
1498720116.31,27621,18.38,72884.0,7.13,6.91,6.83,0,*7B
1498720117.48,27622,18.38,72904.8,7.13,7.41,7.41,0,*7B
1498720118.65,27623,18.38,72908.5,7.17,7.33,7.41,0,*7B
1498720119.9,27624,18.38,72874.3,7.19,7.15,7.15,0,*77
1498720121.08,27625,18.38,72898.8,7.21,6.75,6.75,0,*7D
1498720122.26,27626,18.38,72922.8,7.21,7.45,7.37,0,*7B
1498720123.46,27627,18.38,72920.0,7.21,8.05,8.13,0,*78
1498720124.68,27628,18.38,72904.0,7.27,8.19,8.27,0,*7B
1498720125.87,27629,18.38,72974.3,7.31,6.83,6.75,0,*79
1498720127.06,27630,18.38,72930.0,7.29,6.25,6.29,0,*7D
1498720128.32,27631,18.38,72928.3,7.31,7.61,7.61,0,*79
1498720129.52,27632,18.38,72932.5,7.31,7.55,7.55,0,*7A